Hourly Weather Krajanow

Today, 24 October, Saturday

Time Temperature Precipitation Wind Pressure Humidity
00:00 +11°C° 0.3 mm 4 mps 711 mmHg 91%
01:00 +11°C° 0.3 mm 3 mps 711 mmHg 92%
02:00 +11°C° 0.2 mm 3 mps 711 mmHg 93%
03:00 +10°C° 0.2 mm 2 mps 711 mmHg 94%
04:00 +10°C° 0.2 mm 2 mps 712 mmHg 95%
05:00 +10°C° 0 mm 2 mps 712 mmHg 95%
06:00 +10°C° 0 mm 2 mps 712 mmHg 95%
07:00 +10°C° 0 mm 2 mps 712 mmHg 95%
08:00 +12°C° 0 mm 2 mps 713 mmHg 91%
09:00 +13°C° 0 mm 2 mps 713 mmHg 87%
10:00 +13°C° 0 mm 2 mps 713 mmHg 82%
11:00 +13°C° 0 mm 3 mps 713 mmHg 79%
12:00 +14°C° 0 mm 3 mps 714 mmHg 75%
13:00 +14°C° 0 mm 3 mps 714 mmHg 71%
14:00 +14°C° 0 mm 3 mps 714 mmHg 74%
15:00 +14°C° 0 mm 2 mps 713 mmHg 76%
16:00 +13°C° 0 mm 2 mps 713 mmHg 79%
17:00 +12°C° 0 mm 2 mps 713 mmHg 82%
18:00 +11°C° 0 mm 1 mps 713 mmHg 85%
19:00 +10°C° 0 mm 1 mps 714 mmHg 88%
20:00 +10°C° 0 mm 1 mps 714 mmHg 89%
21:00 +9°C° 0 mm 1 mps 714 mmHg 90%
22:00 +9°C° 0 mm 1 mps 714 mmHg 90%
23:00 +9°C° 0 mm 1 mps 713 mmHg 91%

Tomorrow, 25 October, Sunday

Time Temperature Precipitation Wind Pressure Humidity
00:00 +9°C° 0 mm 1 mps 713 mmHg 91%
01:00 +8°C° 0 mm 1 mps 713 mmHg 92%
02:00 +8°C° 0 mm 1 mps 713 mmHg 92%
03:00 +8°C° 0 mm 1 mps 713 mmHg 92%
04:00 +8°C° 0 mm 1 mps 712 mmHg 92%
05:00 +8°C° 0 mm 1 mps 712 mmHg 91%
06:00 +8°C° 0 mm 1 mps 712 mmHg 91%
07:00 +8°C° 0 mm 1 mps 712 mmHg 91%
08:00 +9°C° 0 mm 1 mps 712 mmHg 84%
09:00 +10°C° 0 mm 2 mps 712 mmHg 78%
10:00 +13°C° 0 mm 2 mps 713 mmHg 71%
11:00 +14°C° 0 mm 2 mps 712 mmHg 67%
12:00 +15°C° 0 mm 2 mps 712 mmHg 63%
13:00 +16°C° 0 mm 2 mps 712 mmHg 58%
14:00 +15°C° 0 mm 2 mps 711 mmHg 63%
15:00 +14°C° 0 mm 2 mps 711 mmHg 68%
16:00 +13°C° 0 mm 2 mps 710 mmHg 73%
17:00 +12°C° 0 mm 2 mps 710 mmHg 77%
18:00 +10°C° 0 mm 2 mps 710 mmHg 81%
19:00 +9°C° 0 mm 2 mps 710 mmHg 85%
20:00 +9°C° 0 mm 2 mps 710 mmHg 87%
21:00 +9°C° 0 mm 2 mps 709 mmHg 88%
22:00 +9°C° 0 mm 2 mps 709 mmHg 89%
23:00 +8°C° 0 mm 2 mps 709 mmHg 90%

Day after tomorrow, 26 October, Monday

Time Temperature Precipitation Wind Pressure Humidity
00:00 +8°C° 0 mm 2 mps 708 mmHg 90%
01:00 +8°C° 0 mm 2 mps 708 mmHg 91%
02:00 +8°C° 0 mm 2 mps 707 mmHg 91%
03:00 +8°C° 0 mm 2 mps 707 mmHg 91%
04:00 +8°C° 0 mm 2 mps 707 mmHg 92%
05:00 +9°C° 0 mm 2 mps 707 mmHg 90%
06:00 +9°C° 0 mm 2 mps 707 mmHg 89%
07:00 +9°C° 0 mm 2 mps 707 mmHg 88%
08:00 +10°C° 0 mm 2 mps 706 mmHg 87%
09:00 +10°C° 0 mm 2 mps 706 mmHg 86%
10:00 +10°C° 0 mm 2 mps 706 mmHg 85%
11:00 +12°C° 0.1 mm 2 mps 706 mmHg 84%
12:00 +11°C° 0.1 mm 3 mps 706 mmHg 84%
13:00 +11°C° 0.1 mm 3 mps 706 mmHg 83%
14:00 +12°C° 0.1 mm 2 mps 706 mmHg 84%
15:00 +10°C° 0.1 mm 2 mps 706 mmHg 86%
16:00 +10°C° 0.1 mm 2 mps 706 mmHg 87%
17:00 +11°C° 0.1 mm 1 mps 706 mmHg 89%
18:00 +11°C° 0.1 mm 1 mps 707 mmHg 91%
19:00 +10°C° 0.1 mm 1 mps 707 mmHg 92%
20:00 +10°C° 0 mm 1 mps 707 mmHg 93%
21:00 +9°C° 0 mm 1 mps 707 mmHg 94%
22:00 +9°C° 0 mm 1 mps 707 mmHg 95%
23:00 +9°C° 0 mm 1 mps 707 mmHg 95%

, 27 October, Tuesday

Time Temperature Precipitation Wind Pressure Humidity
00:00 +9°C° 0 mm 1 mps 707 mmHg 95%
01:00 +9°C° 0 mm 1 mps 707 mmHg 95%
02:00 +9°C° 0.3 mm 1 mps 707 mmHg 96%
03:00 +9°C° 0.3 mm 1 mps 707 mmHg 96%
04:00 +8°C° 0.3 mm 2 mps 707 mmHg 96%
05:00 +9°C° 0.2 mm 1 mps 707 mmHg 97%
06:00 +9°C° 0.2 mm 1 mps 707 mmHg 97%
07:00 +9°C° 0.2 mm 1 mps 707 mmHg 97%
08:00 +9°C° 0.2 mm 1 mps 707 mmHg 95%
09:00 +10°C° 0.2 mm 1 mps 708 mmHg 94%
10:00 +10°C° 0.2 mm 1 mps 708 mmHg 92%
11:00 +11°C° 0.2 mm 1 mps 708 mmHg 91%
12:00 +10°C° 0.2 mm 2 mps 709 mmHg 90%
13:00 +10°C° 0.2 mm 2 mps 709 mmHg 88%
14:00 +10°C° 0.3 mm 2 mps 709 mmHg 91%
15:00 +10°C° 0.3 mm 1 mps 709 mmHg 93%
16:00 +9°C° 0.3 mm 1 mps 709 mmHg 96%
17:00 +9°C° 0.2 mm 1 mps 710 mmHg 96%
18:00 +9°C° 0.2 mm 1 mps 710 mmHg 96%
19:00 +9°C° 0.2 mm 1 mps 710 mmHg 97%
20:00 +9°C° 0 mm 1 mps 711 mmHg 97%
21:00 +9°C° 0 mm 1 mps 711 mmHg 96%
22:00 +7°C° 0 mm 0 mps 711 mmHg 96%
23:00 +7°C° 0 mm 0 mps 711 mmHg 96%

27 October, Tuesday

Time Temperature Precipitation Wind Pressure Humidity
00:00 +9°C° 0 mm 1 mps 707 mmHg 95%
01:00 +9°C° 0 mm 1 mps 707 mmHg 95%
02:00 +9°C° 0.3 mm 1 mps 707 mmHg 96%
03:00 +9°C° 0.3 mm 1 mps 707 mmHg 96%
04:00 +8°C° 0.3 mm 2 mps 707 mmHg 96%
05:00 +9°C° 0.2 mm 1 mps 707 mmHg 97%
06:00 +9°C° 0.2 mm 1 mps 707 mmHg 97%
07:00 +9°C° 0.2 mm 1 mps 707 mmHg 97%
08:00 +9°C° 0.2 mm 1 mps 707 mmHg 95%
09:00 +10°C° 0.2 mm 1 mps 708 mmHg 94%
10:00 +10°C° 0.2 mm 1 mps 708 mmHg 92%
11:00 +11°C° 0.2 mm 1 mps 708 mmHg 91%
12:00 +10°C° 0.2 mm 2 mps 709 mmHg 90%
13:00 +10°C° 0.2 mm 2 mps 709 mmHg 88%
14:00 +10°C° 0.3 mm 2 mps 709 mmHg 91%
15:00 +10°C° 0.3 mm 1 mps 709 mmHg 93%
16:00 +9°C° 0.3 mm 1 mps 709 mmHg 96%
17:00 +9°C° 0.2 mm 1 mps 710 mmHg 96%
18:00 +9°C° 0.2 mm 1 mps 710 mmHg 96%
19:00 +9°C° 0.2 mm 1 mps 710 mmHg 97%
20:00 +9°C° 0 mm 1 mps 711 mmHg 97%
21:00 +9°C° 0 mm 1 mps 711 mmHg 96%
22:00 +7°C° 0 mm 0 mps 711 mmHg 96%
23:00 +7°C° 0 mm 0 mps 711 mmHg 96%

28 October, Wednesday

Time Temperature Precipitation Wind Pressure Humidity
00:00 +7°C° 0 mm 0 mps 711 mmHg 96%
01:00 +7°C° 0 mm 0 mps 711 mmHg 95%
02:00 +7°C° 0 mm 0 mps 711 mmHg 95%
03:00 +7°C° 0 mm 0 mps 711 mmHg 95%
04:00 +7°C° 0 mm 0 mps 711 mmHg 95%
05:00 +7°C° 0 mm 0 mps 712 mmHg 95%
06:00 +7°C° 0 mm 0 mps 712 mmHg 95%
07:00 +7°C° 0 mm 0 mps 712 mmHg 96%
08:00 +9°C° 0 mm 1 mps 712 mmHg 93%
09:00 +9°C° 0 mm 1 mps 712 mmHg 91%
10:00 +10°C° 0 mm 1 mps 712 mmHg 89%
11:00 +10°C° 0 mm 1 mps 712 mmHg 85%
12:00 +10°C° 0 mm 2 mps 712 mmHg 81%
13:00 +12°C° 0 mm 2 mps 712 mmHg 78%
14:00 +10°C° 0 mm 2 mps 712 mmHg 79%
15:00 +10°C° 0 mm 2 mps 712 mmHg 81%
16:00 +9°C° 0 mm 2 mps 712 mmHg 82%
17:00 +9°C° 0 mm 2 mps 712 mmHg 85%
18:00 +8°C° 0 mm 2 mps 712 mmHg 87%
19:00 +7°C° 0 mm 2 mps 712 mmHg 90%
20:00 +7°C° 0 mm 2 mps 712 mmHg 90%
21:00 +7°C° 0 mm 3 mps 712 mmHg 89%
22:00 +7°C° 0 mm 3 mps 712 mmHg 89%
23:00 +7°C° 0 mm 3 mps 712 mmHg 88%

29 October, Thursday

Time Temperature Precipitation Wind Pressure Humidity
00:00 +5°C° 0 mm 3 mps 712 mmHg 87%
01:00 +5°C° 0 mm 3 mps 712 mmHg 86%
02:00 +5°C° 0 mm 3 mps 712 mmHg 85%
03:00 +5°C° 0 mm 3 mps 712 mmHg 85%
04:00 +5°C° 0 mm 3 mps 713 mmHg 84%
05:00 +5°C° 0 mm 4 mps 713 mmHg 84%
06:00 +5°C° 0 mm 4 mps 713 mmHg 84%
07:00 +5°C° 0 mm 4 mps 714 mmHg 84%
08:00 +6°C° 0 mm 5 mps 714 mmHg 82%
09:00 +7°C° 0 mm 6 mps 715 mmHg 79%
10:00 +8°C° 0 mm 6 mps 715 mmHg 76%
11:00 +8°C° 0.1 mm 6 mps 715 mmHg 74%
12:00 +9°C° 0.1 mm 6 mps 716 mmHg 72%
13:00 +9°C° 0.1 mm 5 mps 716 mmHg 69%
14:00 +9°C° 0 mm 5 mps 716 mmHg 71%
15:00 +8°C° 0 mm 4 mps 716 mmHg 73%
16:00 +9°C° 0 mm 3 mps 717 mmHg 75%
17:00 +8°C° 0 mm 3 mps 717 mmHg 78%
18:00 +7°C° 0 mm 3 mps 718 mmHg 81%
19:00 +7°C° 0 mm 2 mps 718 mmHg 84%
20:00 +6°C° 0 mm 2 mps 718 mmHg 85%
21:00 +6°C° 0 mm 2 mps 719 mmHg 86%
22:00 +6°C° 0 mm 2 mps 719 mmHg 87%
23:00 +6°C° 0 mm 2 mps 719 mmHg 89%
Show more